РПИ Ереван

Район полетной информации Ереван (UDDD) обеспечивает организацию воздушного движения в воздушном пространстве Армении в сети VATSIM.

В состав РПИ входит один международный аэропорт (Звартноц, г. Ереван), один аэропорт совместного базирования (Ширак, г. Гюмри), и один военный аэропорт (Эребуни, г. Еерван).

В воздушном пространстве Грузии и Армении по соглашению обеих стран в верхнем воздушном пространстве возможно применение Free-Route при планировании маршрута. На схеме ниже представлены точки на границе воздушного пространства Армении. Точки на границе с воздушным пространством Грузии (OGEVI, TAVRO, TISOT) обязательно должны быть указаны в плане полета, если полет проходит через оба воздушных пространства по технологии Free-Route.

Руководитель РПИ

Karim Garifullin*

Инструкторы РПИ
Grigori Badalov (Instructor)
Tigran Areian * (Controller)
Входит в состав
ЗЦ Ростов-на-Дону

Диспетчеры РПИ

Диспетчер Рейтинг Допуски *
Grigori Badalov Instructor UDDD_CTR
Ivan Chernov Senior Controller UDDD_CTR
Karim Garifullin Instructor UDDD_CTR
Tigran Areian Controller UDDD_CTR
Valeriy Polostyanoy Instructor UDDD_CTR
Emanuel Teymoorian Student 2 UDYZ_TWR, UDYZ_APP*

Аэропорты РПИ

ICAO Город Название Погода
UDYZ Ереван Звартноц UDYZ 020100Z 32004KT 9999 NSC 22/11 Q1008 R09/010070 NOSIG
UDSG Гюмри Ширак UDSG 020100Z 33004KT 300V020 9999 VCTS BKN043CB 15/11 Q1015 R02/////// NOSIG
UDYE Ереван Эребуни